Location: Saint-Gilles les Bains
(21.0539°S, 55.2287°E)
Time: 02:34:48
(UTC+04:00)

Hubble Space Telescope - Pass Details

Date: 19 April 2024
Orbit: 512 x 516 km, 28.5° (Epoch: 17 May)

Event Time Altitude Azimuth Distance (km) Brightness Sun altitude
Exits shadow 04:52:10 29° 165° (SSE) 976 2.1 -24.0°
Drops below altitude 10° 04:55:02 10° 124° (SE) 1,751 4.1 -23.3°
Sets 04:57:28 0° 113° (ESE) 2,639 5.3 -22.7°
